{"data":{"norad_id":55421,"intl_designator":"2023-014AG","name":"STARLINK-5598","alt_names":[],"object_type":"PAYLOAD","status":"ACTIVE","operator":null,"country":"US","launch_date":"2023-01-31","launch_site_code":"AFWTR","launch_vehicle":null,"mission":null,"orbit_class":"UNKNOWN","rcs_meters":null,"size_class":null,"mass_kg":null,"dimensions":null,"purposes":["comms"],"wikipedia_slug":null,"has_3d_model":false,"image_url":null,"decayed_at":null,"tle_current":{"epoch":"2026-05-25T00:05:07.953792Z","epoch_age_seconds":68066,"freshness":"FRESH","line1":"1 55421U 23014AG  26145.00356428  .00000294  00000+0  32413-4 0  9994","line2":"2 55421  69.9993 252.0220 0003085 266.8779  93.2027 14.98332476182997","mean_motion":14.98332476,"eccentricity":0.0003085,"inclination_deg":69.9993,"raan_deg":252.022,"arg_perigee_deg":266.8779,"mean_anomaly_deg":93.2027,"bstar":3.2413e-5,"rev_number":18299,"period_min":96.106840308519,"perigee_km":569.90410198448,"apogee_km":574.19236627394,"semimajor_km":6950.1852341292,"source":"CELESTRAK","updated_at":"2026-05-25T13:38:17.798323Z"}}}